This demonstration page uses our WeatherBlox Daily Observations layout. Learn more.

40.92945, -100.16068

Hourly Observations for March 24, 2020

Temp ( °F °C ) Dew Point ( °F °C ) Humidity (%) Winds ( mph kmh ) Pressure ( in mb ) Visibility ( mi km ) Precip ( " mm )
12:15 am 00:15 Clear 42 5.4 41 4.8 96 96 SE 8 13 29.93 1014 10 16.0934 0 0
12:35 am 00:35 Clear 42 5.5 41 4.8 95 95 SE 3 6 29.94 1014 10 16.0934 0 0
12:55 am 00:55 Clear 40 4.2 39 3.7 97 97 S 6 9 29.97 1015 10 16.0934 0 0
1:15 am 01:15 Clear 39 3.8 38 3.5 98 98 S 3 6 29.97 1015 10 16.0934 0 0
1:35 am 01:35 Clear 40 4.6 39 4.1 97 97 S 5 7 29.95 1014 10 16.0934 0 0
1:55 am 01:55 Clear 41 5.1 40 4.6 97 97 SSE 5 7 29.95 1014 10 16.0934 0 0
2:15 am 02:15 Clear 42 5.7 41 5.1 96 96 SE 6 9 29.94 1014 10 16.0934 0 0
2:35 am 02:35 Clear 41 4.9 40 4.5 97 97 SSE 8 13 29.94 1014 7 11.26538 0 0
2:55 am 02:55 Partly Cloudy 41 5 41 4.8 99 99 SSE 3 6 29.94 1014 7 11.26538 0 0
3:15 am 03:15 Partly Cloudy 41 5.1 41 4.9 99 99 SE 3 6 29.92 1013 7 11.26538 0 0
3:35 am 03:35 Clear with Mist and Fog 37 2.6 36 2.4 99 99 Calm 29.93 1014 3 4.82802 0 0
3:55 am 03:55 Clear with Mist and Fog 36 2 36 2 100 100 Calm 29.93 1013 3 4.82802 0 0
4:15 am 04:15 Clear with Mist and Fog 36 2.1 36 2.1 100 100 Calm 29.93 1013 3 4.82802 0 0
4:35 am 04:35 Cloudy with Fog 34 1.3 34 1.3 100 100 SSE 3 6 29.93 1014 0.25 0.402335 0 0
4:55 am 04:55 Cloudy with Fog 34 0.9 34 0.9 100 100 Calm 29.93 1013 0.25 0.402335 0 0
5:15 am 05:15 Cloudy with Fog 33 0.4 33 0.4 100 100 Calm 29.94 1014 0.5 0.80467 0 0
5:35 am 05:35 Cloudy with Fog 33 0.3 33 0.3 100 100 Calm 29.94 1014 0.25 0.402335 0 0
5:55 am 05:55 Cloudy with Fog 34 1 34 1 100 100 Calm 29.94 1014 0.25 0.402335 0 0
6:15 am 06:15 Cloudy with Fog 36 2.4 36 2.4 100 100 SSE 6 9 29.93 1014 0.25 0.402335 0 0
6:35 am 06:35 Cloudy with Fog 39 3.8 39 3.8 100 100 SSE 3 6 29.93 1014 N/A 0 0
6:55 am 06:55 Cloudy with Fog 39 4 39 4 100 100 SSE 3 6 29.93 1013 0.25 0.402335 0 0
7:15 am 07:15 Cloudy with Fog 39 4.1 39 4.1 100 100 SSE 3 6 29.92 1013 0.25 0.402335 0 0
7:35 am 07:35 Cloudy with Fog 40 4.3 40 4.3 100 100 SSE 3 6 29.91 1013 N/A 0 0
7:55 am 07:55 Cloudy with Fog 40 4.7 40 4.7 100 100 SSE 5 7 29.92 1013 N/A 0 0
8:15 am 08:15 Cloudy with Fog 42 5.3 42 5.3 100 100 S 6 9 29.92 1013 N/A 0 0
8:35 am 08:35 Cloudy with Fog 42 5.6 42 5.6 100 100 SW 6 9 29.93 1014 N/A 0 0
8:55 am 08:55 Cloudy with Fog 42 5.6 42 5.6 100 100 SW 5 7 29.94 1014 N/A 0 0
9:15 am 09:15 Cloudy with Fog 42 5.7 42 5.7 100 100 WSW 6 9 29.94 1014 0.25 0.402335 0 0
9:35 am 09:35 Cloudy with Fog 43 6 43 6 100 100 SW 6 9 29.95 1014 0.25 0.402335 0 0
9:55 am 09:55 Cloudy with Fog 44 6.5 44 6.5 100 100 SW 7 11 29.93 1014 0.25 0.402335 0 0
10:15 am 10:15 Cloudy with Mist and Fog 45 7 45 7 100 100 S 9 15 29.93 1014 0.75 1.207005 0 0
10:35 am 10:35 Cloudy with Mist and Fog 45 7.3 45 7.3 100 100 SW 9 15 29.95 1014 2.5 4.02335 0 0
10:55 am 10:55 Cloudy with Mist and Fog 46 7.7 46 7.7 100 100 SSW 9 15 29.92 1013 4 6.43736 0 0
11:15 am 11:15 Cloudy 47 8.1 47 8.1 100 100 SSW 7 11 29.92 1013 10 16.0934 0 0
11:35 am 11:35 Mostly Cloudy 49 9.7 48 9 95 95 SSW 7 11 29.9 1013 10 16.0934 0 0
11:55 am 11:55 Partly Cloudy 51 10.6 48 8.9 89 89 SSW 7 11 29.89 1012 10 16.0934 0 0
12:15 pm 12:15 Sunny 53 11.8 49 9.6 87 87 SSW 6 9 29.86 1011 10 16.0934 0 0
12:35 pm 12:35 Sunny 55 12.8 49 9.2 79 79 SW 7 11 29.86 1011 10 16.0934 0 0
12:55 pm 12:55 Sunny 59 15.2 46 7.5 60 60 SSW 7 11 29.81 1010 10 16.0934 0 0
1:15 pm 13:15 Sunny 61 16 44 6.8 55 55 W 6 9 29.8 1009 10 16.0934 0 0
1:35 pm 13:35 Sunny 63 17.1 44 6.8 51 51 W 7 11 29.79 1009 10 16.0934 0 0
1:55 pm 13:55 Sunny 64 17.7 42 5.5 45 45 SW 6 9 29.77 1008 10 16.0934 0 0
2:15 pm 14:15 Sunny 65 18.1 42 5.6 44 44 WSW 3 6 29.76 1008 10 16.0934 0 0
2:35 pm 14:35 Sunny 66 19 40 4.7 39 39 SSW 7 11 29.74 1007 10 16.0934 0 0
2:55 pm 14:55 Sunny 67 19.2 37 2.6 33 33 WNW 13 20 29.74 1007 10 16.0934 0 0
3:15 pm 15:15 Sunny 67 19.5 36 2.4 32 32 W 6 9 29.73 1007 10 16.0934 0 0
3:35 pm 15:35 Sunny 68 19.8 37 2.6 32 32 WNW 7 11 29.71 1006 10 16.0934 0 0
3:55 pm 15:55 Sunny 69 20.4 36 2.3 30 30 WNW 8 13 29.7 1006 10 16.0934 0 0
4:15 pm 16:15 Sunny 69 20.6 36 2 29 29 WNW 20 31 29.7 1006 10 16.0934 0 0
4:35 pm 16:35 Sunny 69 20.8 37 2.7 30 30 WNW 14 22 29.7 1006 10 16.0934 0 0
4:55 pm 16:55 Sunny 69 20.5 37 2.9 31 31 W 14 22 29.69 1005 10 16.0934 0 0
5:15 pm 17:15 Sunny 68 20 36 2.4 31 31 WNW 12 19 29.69 1006 10 16.0934 0 0
5:35 pm 17:35 Sunny 68 20.1 36 2 30 30 WNW 17 28 29.69 1005 10 16.0934 0 0
5:55 pm 17:55 Partly Cloudy 68 20 36 2.4 31 31 WNW 14 22 29.69 1006 10 16.0934 0 0
6:15 pm 18:15 Partly Cloudy 68 20 35 1.7 30 30 WNW 12 19 29.69 1006 10 16.0934 0 0
6:35 pm 18:35 Sunny 67 19.7 36 2 31 31 W 8 13 29.7 1006 10 16.0934 0 0
6:55 pm 18:55 Sunny 66 19.1 38 3.5 36 36 W 7 11 29.7 1006 10 16.0934 0 0
7:15 pm 19:15 Sunny 63 17.1 40 4.3 43 43 W 7 11 29.72 1006 10 16.0934 0 0
7:35 pm 19:35 Sunny 61 16 39 4 45 45 W 5 7 29.74 1007 10 16.0934 0 0
7:55 pm 19:55 Sunny 60 15.3 37 2.7 43 43 SW 5 7 29.74 1007 10 16.0934 0 0
8:15 pm 20:15 Clear 58 14.5 36 2.2 44 44 SSW 3 6 29.75 1007 10 16.0934 0 0
8:35 pm 20:35 Clear 53 11.9 38 3.3 56 56 SSW 6 9 29.77 1008 10 16.0934 0 0
8:55 pm 20:55 Clear 50 10.1 38 3.5 64 64 SSW 7 11 29.8 1009 10 16.0934 0 0
9:15 pm 21:15 Clear 50 9.8 37 2.8 62 62 SSW 5 7 29.8 1009 10 16.0934 0 0
9:35 pm 21:35 Partly Cloudy 51 10.4 37 2.5 58 58 SSW 5 7 29.81 1009 10 16.0934 0 0
9:55 pm 21:55 Partly Cloudy 50 9.9 38 3.5 65 65 SSW 6 9 29.8 1009 10 16.0934 0 0
10:15 pm 22:15 Partly Cloudy 50 9.9 37 2.8 62 62 Calm 29.81 1010 10 16.0934 0 0
10:35 pm 22:35 Clear 53 11.4 34 1.1 49 49 Calm 29.79 1009 10 16.0934 0 0
10:55 pm 22:55 Clear 44 6.7 38 3.1 78 78 Calm 29.83 1010 10 16.0934 0 0
11:15 pm 23:15 Clear 46 8 36 2.4 68 68 ENE 3 6 29.82 1010 10 16.0934 0 0
11:35 pm 23:35 Clear 47 8.6 36 2.2 64 64 SSE 8 13 29.81 1010 10 16.0934 0 0
11:55 pm 23:55 Clear 47 8.1 38 3.5 73 73 SSE 8 13 29.81 1009 10 16.0934 0 0

Powered by AerisWeather